| time (UTC) | temp C | wind direction | speed KPH | gust KPH | rain 1hr cm | rain 24hr cm | rain mn cm | humidity % | barometer mb |
| 20260505164354 | 25 | 114 | 1.6 | 3.2 | 0.00 | 0.00 | 0.00 | 46 | 1007.2 |
| 20260505163853 | 26 | 209 | 6.4 | 11.3 | 0.00 | 0.00 | 0.00 | 46 | 1007.4 |
| 20260505163352 | 25 | 321 | 4.8 | 9.7 | 0.00 | 0.00 | 0.00 | 44 | 1007.3 |
| 20260505162850 | 25 | 228 | 4.8 | 4.8 | 0.00 | 0.00 | 0.00 | 45 | 1007.4 |
| 20260505162345 | 26 | 278 | 4.8 | 4.8 | 0.00 | 0.00 | 0.00 | 48 | 1007.7 |
| 20260505161843 | 25 | 215 | 6.4 | 9.7 | 0.00 | 0.00 | 0.00 | 46 | 1007.3 |
| 20260505161339 | 25 | 288 | 6.4 | 8.0 | 0.00 | 0.00 | 0.00 | 45 | 1007.5 |
| 20260505160837 | 25 | 105 | 3.2 | 4.8 | 0.00 | 0.00 | 0.00 | 47 | 1007.5 |
| 20260505160335 | 25 | 90 | 1.6 | 1.6 | 0.00 | 0.00 | 0.00 | 46 | 1007.8 |
| 20260505153314 | 25 | 202 | 6.4 | 8.0 | 0.00 | 0.00 | 0.00 | 47 | 1008.1 |
| 20260505152811 | 24 | 82 | 1.6 | 1.6 | 0.00 | 0.00 | 0.00 | 48 | 1007.9 |
| 20260505152307 | 24 | 118 | 4.8 | 8.0 | 0.00 | 0.00 | 0.00 | 50 | 1008.2 |
| 20260505151802 | 23 | 315 | 3.2 | 3.2 | 0.00 | 0.00 | 0.00 | 52 | 1008.0 |
| 20260505151259 | 23 | 188 | 4.8 | 4.8 | 0.00 | 0.00 | 0.00 | 50 | 1008.0 |
| 20260505150756 | 23 | 323 | 4.8 | 4.8 | 0.00 | 0.00 | 0.00 | 50 | 1008.2 |
| 20260505150253 | 23 | 351 | 3.2 | 3.2 | 0.00 | 0.00 | 0.00 | 52 | 1008.1 |
| 20260505140223 | 22 | 50 | 3.2 | 4.8 | 0.00 | 0.00 | 0.00 | 53 | 1008.7 |
| 20260505130147 | 19 | 32 | 1.6 | 1.6 | 0.00 | 0.00 | 0.00 | 61 | 1008.5 |
| 20260505124637 | 19 | 215 | 9.7 | 11.3 | 0.00 | 0.00 | 0.00 | 62 | 1008.6 |
| 20260505124133 | 18 | 189 | 6.4 | 8.0 | 0.00 | 0.00 | 0.00 | 63 | 1008.7 |
| 20260505123629 | 18 | 220 | 6.4 | 8.0 | 0.00 | 0.00 | 0.00 | 63 | 1008.5 |
| 20260505123126 | 18 | 212 | 4.8 | 4.8 | 0.00 | 0.00 | 0.00 | 63 | 1008.4 |
| 20260505122623 | 18 | 124 | 3.2 | 3.2 | 0.00 | 0.00 | 0.00 | 64 | 1008.4 |
| 20260505122120 | 18 | 211 | 8.0 | 9.7 | 0.00 | 0.00 | 0.00 | 64 | 1008.4 |
| 20260505121616 | 17 | 296 | 3.2 | 3.2 | 0.00 | 0.00 | 0.00 | 66 | 1008.5 |
| 20260505121113 | 17 | 217 | 6.4 | 8.0 | 0.00 | 0.00 | 0.00 | 64 | 1008.4 |
| 20260505120609 | 17 | 221 | 4.8 | 4.8 | 0.00 | 0.00 | 0.00 | 66 | 1008.6 |
| 20260505120106 | 17 | 226 | 3.2 | 3.2 | 0.00 | 0.00 | 0.00 | 66 | 1008.5 |
| 20260505115600 | 17 | 220 | 4.8 | 4.8 | 0.00 | 0.00 | 0.00 | 67 | 1008.5 |
| 20260505115057 | 17 | 208 | 4.8 | 8.0 | 0.00 | 0.00 | 0.00 | 68 | 1008.6 |
| 20260505114555 | 16 | 214 | 4.8 | 4.8 | 0.00 | 0.00 | 0.00 | 68 | 1008.6 |
| 20260505114051 | 16 | 224 | 4.8 | 4.8 | 0.00 | 0.00 | 0.00 | 69 | 1008.4 |
| 20260505113547 | 16 | 210 | 3.2 | 3.2 | 0.00 | 0.00 | 0.00 | 71 | 1008.5 |
| 20260505113044 | 16 | 211 | 4.8 | 4.8 | 0.00 | 0.00 | 0.00 | 70 | 1008.6 |
| 20260505112540 | 16 | 341 | 3.2 | 3.2 | 0.00 | 0.00 | 0.00 | 71 | 1008.5 |
| 20260505112038 | 15 | 220 | 8.0 | 9.7 | 0.00 | 0.00 | 0.00 | 72 | 1008.4 |
| 20260505111532 | 15 | 92 | 1.6 | 3.2 | 0.00 | 0.00 | 0.00 | 73 | 1008.3 |
| 20260505111028 | 15 | 107 | 3.2 | 3.2 | 0.00 | 0.00 | 0.00 | 76 | 1008.4 |
| 20260505110525 | 15 | 71 | 0.0 | 0.0 | 0.00 | 0.00 | 0.00 | 76 | 1008.7 |
| 20260505101957 | 13 | 64 | 0.0 | 0.0 | 0.00 | 0.00 | 0.00 | 79 | 1008.4 |
| 20260505101455 | 13 | 67 | 1.6 | 1.6 | 0.00 | 0.00 | 0.00 | 80 | 1008.4 |
| 20260505100952 | 13 | 51 | 1.6 | 1.6 | 0.00 | 0.00 | 0.00 | 81 | 1008.2 |
| 20260505100449 | 13 | 53 | 0.0 | 1.6 | 0.00 | 0.00 | 0.00 | 81 | 1008.4 |
| 20260505095945 | 13 | 65 | 0.0 | 0.0 | 0.00 | 0.00 | 0.00 | 81 | 1008.0 |
| 20260505095441 | 13 | 50 | 0.0 | 0.0 | 0.00 | 0.00 | 0.00 | 81 | 1008.3 |
| 20260505094938 | 13 | 79 | 1.6 | 1.6 | 0.00 | 0.00 | 0.00 | 80 | 1008.3 |
| 20260505094435 | 13 | 51 | 0.0 | 0.0 | 0.00 | 0.00 | 0.00 | 81 | 1008.0 |
| 20260505093931 | 13 | 39 | 1.6 | 1.6 | 0.00 | 0.00 | 0.00 | 80 | 1008.0 |
| 20260505093428 | 13 | 34 | 1.6 | 1.6 | 0.00 | 0.00 | 0.00 | 79 | 1007.8 |
| 20260505092925 | 13 | 55 | 1.6 | 1.6 | 0.00 | 0.00 | 0.00 | 78 | 1007.4 |
| 20260505092423 | 13 | 63 | 0.0 | 0.0 | 0.00 | 0.00 | 0.00 | 77 | 1007.4 |
| 20260505091920 | 14 | 58 | 0.0 | 1.6 | 0.00 | 0.00 | 0.00 | 77 | 1007.5 |
| 20260505091417 | 14 | 58 | 0.0 | 0.0 | 0.00 | 0.00 | 0.00 | 76 | 1007.3 |
| 20260505090916 | 14 | 60 | 0.0 | 0.0 | 0.00 | 0.00 | 0.00 | 75 | 1007.2 |
| 20260505090414 | 14 | 77 | 1.6 | 1.6 | 0.00 | 0.00 | 0.00 | 75 | 1007.4 |
| 20260505085911 | 14 | 210 | 3.2 | 3.2 | 0.00 | 0.00 | 0.00 | 75 | 1007.5 |
| 20260505085409 | 14 | 199 | 4.8 | 4.8 | 0.00 | 0.00 | 0.00 | 75 | 1007.6 |
| 20260505084906 | 14 | 219 | 3.2 | 3.2 | 0.00 | 0.00 | 0.00 | 75 | 1007.7 |
| 20260505084404 | 14 | 90 | 1.6 | 3.2 | 0.00 | 0.00 | 0.00 | 75 | 1007.5 |
| 20260505083902 | 13 | 63 | 0.0 | 1.6 | 0.00 | 0.00 | 0.00 | 76 | 1007.5 |
| 20260505083359 | 13 | 206 | 4.8 | 4.8 | 0.00 | 0.00 | 0.00 | 77 | 1007.6 |
| 20260505082855 | 13 | 152 | 3.2 | 3.2 | 0.00 | 0.00 | 0.00 | 78 | 1007.6 |
| 20260505082351 | 13 | 116 | 3.2 | 3.2 | 0.00 | 0.00 | 0.00 | 79 | 1007.4 |
| 20260505081848 | 13 | 42 | 1.6 | 1.6 | 0.00 | 0.00 | 0.00 | 79 | 1007.6 |
| 20260505081345 | 13 | 55 | 1.6 | 1.6 | 0.00 | 0.00 | 0.00 | 77 | 1007.5 |
| 20260505080841 | 13 | 112 | 1.6 | 3.2 | 0.00 | 0.00 | 0.00 | 77 | 1007.6 |
| 20260505080337 | 13 | 43 | 1.6 | 1.6 | 0.00 | 0.00 | 0.00 | 78 | 1007.4 |
| 20260505075833 | 13 | 66 | 1.6 | 1.6 | 0.00 | 0.00 | 0.00 | 77 | 1007.4 |
| 20260505075330 | 13 | 57 | 1.6 | 1.6 | 0.00 | 0.00 | 0.00 | 76 | 1007.5 |
| 20260505074827 | 13 | 68 | 1.6 | 1.6 | 0.00 | 0.00 | 0.00 | 76 | 1007.6 |
| 20260505074325 | 13 | 62 | 1.6 | 1.6 | 0.00 | 0.00 | 0.00 | 76 | 1007.3 |
| 20260505073822 | 13 | 106 | 1.6 | 3.2 | 0.00 | 0.00 | 0.00 | 76 | 1007.7 |
| 20260505073320 | 13 | 106 | 3.2 | 3.2 | 0.00 | 0.00 | 0.00 | 76 | 1007.7 |
| 20260505072816 | 13 | 75 | 1.6 | 1.6 | 0.00 | 0.00 | 0.00 | 75 | 1007.5 |
| 20260505072313 | 14 | 202 | 4.8 | 4.8 | 0.00 | 0.00 | 0.00 | 75 | 1007.6 |
| 20260505071809 | 13 | 57 | 0.0 | 0.0 | 0.00 | 0.00 | 0.00 | 75 | 1007.4 |
| 20260505071306 | 13 | 134 | 3.2 | 3.2 | 0.00 | 0.00 | 0.00 | 76 | 1007.3 |
| 20260505070804 | 13 | 66 | 0.0 | 0.0 | 0.00 | 0.00 | 0.00 | 78 | 1007.4 |
| 20260505070300 | 13 | 61 | 0.0 | 0.0 | 0.00 | 0.00 | 0.00 | 76 | 1007.5 |
| 20260505065754 | 13 | 37 | 0.0 | 0.0 | 0.00 | 0.00 | 0.00 | 75 | 1007.4 |
| 20260505065252 | 14 | 37 | 0.0 | 1.6 | 0.00 | 0.00 | 0.00 | 73 | 1007.4 |
| 20260505064749 | 15 | 65 | 1.6 | 1.6 | 0.00 | 0.00 | 0.00 | 73 | 1007.4 |
| 20260505064246 | 15 | 214 | 6.4 | 8.0 | 0.00 | 0.00 | 0.00 | 72 | 1007.2 |
| 20260505063744 | 15 | 211 | 4.8 | 8.0 | 0.00 | 0.00 | 0.00 | 72 | 1007.2 |
| 20260505063240 | 15 | 215 | 4.8 | 8.0 | 0.00 | 0.00 | 0.00 | 71 | 1007.5 |
| 20260505062736 | 15 | 211 | 4.8 | 4.8 | 0.00 | 0.00 | 0.00 | 71 | 1007.3 |
| 20260505062234 | 15 | 207 | 4.8 | 4.8 | 0.00 | 0.00 | 0.00 | 71 | 1007.5 |
| 20260505061731 | 15 | 215 | 4.8 | 8.0 | 0.00 | 0.00 | 0.00 | 71 | 1007.3 |
| 20260505061229 | 15 | 320 | 3.2 | 3.2 | 0.00 | 0.00 | 0.00 | 71 | 1007.3 |
| 20260505060726 | 14 | 216 | 4.8 | 4.8 | 0.00 | 0.00 | 0.00 | 72 | 1007.5 |
| 20260505060223 | 14 | 141 | 3.2 | 3.2 | 0.00 | 0.00 | 0.00 | 73 | 1007.4 |
| 20260505055718 | 14 | 138 | 3.2 | 3.2 | 0.00 | 0.00 | 0.00 | 73 | 1007.5 |
| 20260505055215 | 14 | 206 | 4.8 | 4.8 | 0.00 | 0.00 | 0.00 | 72 | 1007.5 |
| 20260505054712 | 15 | 197 | 4.8 | 4.8 | 0.00 | 0.00 | 0.00 | 72 | 1007.5 |
| 20260505054210 | 15 | 85 | 1.6 | 1.6 | 0.00 | 0.00 | 0.00 | 71 | 1007.4 |
| 20260505053708 | 15 | 235 | 3.2 | 3.2 | 0.00 | 0.00 | 0.00 | 72 | 1007.8 |
| 20260505053204 | 15 | 250 | 6.4 | 8.0 | 0.00 | 0.00 | 0.00 | 71 | 1007.7 |
| 20260505052701 | 15 | 226 | 6.4 | 8.0 | 0.00 | 0.00 | 0.00 | 71 | 1007.6 |
| 20260505052158 | 15 | 220 | 4.8 | 8.0 | 0.00 | 0.00 | 0.00 | 71 | 1007.7 |
| 20260505051655 | 15 | 230 | 3.2 | 4.8 | 0.00 | 0.00 | 0.00 | 71 | 1007.7 |
| 20260505051153 | 15 | 215 | 4.8 | 8.0 | 0.00 | 0.00 | 0.00 | 70 | 1007.6 |
| 20260505050651 | 15 | 233 | 4.8 | 4.8 | 0.00 | 0.00 | 0.00 | 70 | 1007.8 |
| 20260505050149 | 15 | 189 | 4.8 | 4.8 | 0.00 | 0.00 | 0.00 | 70 | 1007.7 |
| 20260505041619 | 15 | 220 | 6.4 | 8.0 | 0.00 | 0.00 | 0.00 | 67 | 1007.8 |
| 20260505041116 | 15 | 220 | 6.4 | 8.0 | 0.00 | 0.00 | 0.00 | 67 | 1007.8 |
| 20260505040613 | 15 | 211 | 4.8 | 4.8 | 0.00 | 0.00 | 0.00 | 66 | 1008.0 |
| 20260505040110 | 15 | 221 | 3.2 | 3.2 | 0.00 | 0.00 | 0.00 | 66 | 1008.0 |
| 20260505035606 | 15 | 175 | 4.8 | 4.8 | 0.00 | 0.00 | 0.00 | 65 | 1008.0 |
| 20260505035103 | 15 | 206 | 4.8 | 4.8 | 0.00 | 0.00 | 0.00 | 65 | 1007.9 |
| 20260505034559 | 15 | 217 | 4.8 | 4.8 | 0.00 | 0.00 | 0.00 | 65 | 1007.9 |
| 20260505034056 | 15 | 98 | 3.2 | 4.8 | 0.00 | 0.00 | 0.00 | 64 | 1007.8 |
| 20260505033553 | 15 | 184 | 4.8 | 4.8 | 0.00 | 0.00 | 0.00 | 65 | 1008.1 |
| 20260505033052 | 15 | 217 | 4.8 | 4.8 | 0.00 | 0.00 | 0.00 | 63 | 1007.9 |
| 20260505032549 | 15 | 218 | 6.4 | 8.0 | 0.00 | 0.00 | 0.00 | 63 | 1008.1 |
| 20260505032045 | 15 | 89 | 1.6 | 3.2 | 0.00 | 0.00 | 0.00 | 62 | 1007.9 |
| 20260505031543 | 15 | 76 | 0.0 | 1.6 | 0.00 | 0.00 | 0.00 | 62 | 1008.0 |
| 20260505031039 | 15 | 106 | 3.2 | 3.2 | 0.00 | 0.00 | 0.00 | 60 | 1008.1 |
| 20260505030536 | 15 | 79 | 1.6 | 1.6 | 0.00 | 0.00 | 0.00 | 61 | 1008.2 |
| 20260505030032 | 15 | 99 | 3.2 | 3.2 | 0.00 | 0.00 | 0.00 | 60 | 1008.1 |
| 20260505025528 | 15 | 80 | 1.6 | 1.6 | 0.00 | 0.00 | 0.00 | 61 | 1007.8 |
| 20260505025027 | 15 | 81 | 1.6 | 3.2 | 0.00 | 0.00 | 0.00 | 59 | 1008.1 |
| 20260505024524 | 16 | 13 | 1.6 | 1.6 | 0.00 | 0.00 | 0.00 | 57 | 1008.2 |
| 20260505024021 | 16 | 342 | 1.6 | 3.2 | 0.00 | 0.00 | 0.00 | 57 | 1008.2 |
| 20260505023518 | 16 | 348 | 3.2 | 3.2 | 0.00 | 0.00 | 0.00 | 55 | 1008.2 |
| 20260505023015 | 16 | 72 | 0.0 | 0.0 | 0.00 | 0.00 | 0.00 | 54 | 1008.2 |
| 20260505022513 | 16 | 105 | 1.6 | 3.2 | 0.00 | 0.00 | 0.00 | 54 | 1008.1 |
| 20260505022010 | 16 | 104 | 1.6 | 3.2 | 0.00 | 0.00 | 0.00 | 56 | 1008.3 |
| 20260505021506 | 16 | 101 | 1.6 | 3.2 | 0.00 | 0.00 | 0.00 | 52 | 1008.3 |
| 20260505021003 | 16 | 107 | 1.6 | 3.2 | 0.00 | 0.00 | 0.00 | 52 | 1008.2 |
| 20260505020457 | 15 | 76 | 1.6 | 1.6 | 0.00 | 0.00 | 0.00 | 56 | 1008.2 |
| 20260505015954 | 15 | 92 | 1.6 | 1.6 | 0.00 | 0.00 | 0.00 | 58 | 1008.3 |
| 20260505015452 | 15 | 79 | 1.6 | 1.6 | 0.00 | 0.00 | 0.00 | 54 | 1008.2 |
| 20260505014949 | 15 | 91 | 1.6 | 1.6 | 0.00 | 0.00 | 0.00 | 58 | 1008.2 |
| 20260505014445 | 15 | 91 | 0.0 | 1.6 | 0.00 | 0.00 | 0.00 | 59 | 1008.0 |
| 20260505013943 | 15 | 91 | 1.6 | 1.6 | 0.00 | 0.00 | 0.00 | 59 | 1008.0 |
| 20260505013440 | 15 | 89 | 1.6 | 1.6 | 0.00 | 0.00 | 0.00 | 55 | 1008.0 |
| 20260505012937 | 15 | 89 | 1.6 | 1.6 | 0.00 | 0.00 | 0.00 | 56 | 1008.0 |
| 20260505012435 | 16 | 107 | 3.2 | 3.2 | 0.00 | 0.00 | 0.00 | 55 | 1007.9 |
| 20260505011931 | 16 | 88 | 1.6 | 1.6 | 0.00 | 0.00 | 0.00 | 54 | 1007.8 |
| 20260505011427 | 16 | 98 | 1.6 | 1.6 | 0.00 | 0.00 | 0.00 | 50 | 1007.9 |
| 20260505010925 | 16 | 106 | 3.2 | 3.2 | 0.00 | 0.00 | 0.00 | 54 | 1007.9 |
| 20260505010420 | 16 | 89 | 1.6 | 1.6 | 0.00 | 0.00 | 0.00 | 53 | 1007.6 |
| 20260505005916 | 16 | 88 | 1.6 | 1.6 | 0.00 | 0.00 | 0.00 | 53 | 1007.5 |
| 20260505005413 | 17 | 82 | 1.6 | 1.6 | 0.00 | 0.00 | 0.00 | 50 | 1007.6 |
| 20260505004911 | 17 | 117 | 1.6 | 3.2 | 0.00 | 0.00 | 0.00 | 47 | 1007.5 |
| 20260505004407 | 17 | 108 | 1.6 | 3.2 | 0.00 | 0.00 | 0.00 | 47 | 1007.5 |
| 20260505003904 | 17 | 105 | 1.6 | 1.6 | 0.00 | 0.00 | 0.00 | 46 | 1007.4 |
| 20260505003401 | 18 | 104 | 1.6 | 1.6 | 0.00 | 0.00 | 0.00 | 45 | 1007.4 |
| 20260505002857 | 18 | 131 | 3.2 | 3.2 | 0.00 | 0.00 | 0.00 | 45 | 1007.5 |
| 20260505002354 | 18 | 206 | 3.2 | 3.2 | 0.00 | 0.00 | 0.00 | 45 | 1007.5 |
| 20260505001853 | 18 | 217 | 1.6 | 3.2 | 0.00 | 0.00 | 0.00 | 45 | 1007.3 |
| 20260505001349 | 18 | 85 | 1.6 | 1.6 | 0.00 | 0.00 | 0.00 | 46 | 1007.2 |
| 20260505000847 | 18 | 87 | 1.6 | 1.6 | 0.00 | 0.00 | 0.00 | 45 | 1007.0 |
| 20260505000344 | 18 | 106 | 1.6 | 3.2 | 0.00 | 0.00 | 0.00 | 43 | 1006.9 |
| 20260504235841 | 18 | 143 | 3.2 | 3.2 | 0.00 | 0.00 | 0.00 | 43 | 1007.0 |
| 20260504235338 | 18 | 183 | 3.2 | 3.2 | 0.00 | 0.00 | 0.00 | 42 | 1007.0 |
| 20260504234834 | 19 | 83 | 1.6 | 1.6 | 0.00 | 0.00 | 0.00 | 42 | 1006.8 |
| 20260504234332 | 20 | 119 | 1.6 | 1.6 | 0.00 | 0.00 | 0.00 | 42 | 1006.6 |
| 20260504233828 | 20 | 231 | 3.2 | 3.2 | 0.00 | 0.00 | 0.00 | 41 | 1006.6 |
| 20260504233324 | 20 | 305 | 1.6 | 3.2 | 0.00 | 0.00 | 0.00 | 40 | 1006.8 |
| 20260504232821 | 20 | 235 | 3.2 | 3.2 | 0.00 | 0.00 | 0.00 | 40 | 1006.5 |
| 20260504232318 | 20 | 104 | 3.2 | 3.2 | 0.00 | 0.00 | 0.00 | 41 | 1006.5 |
| 20260504231815 | 20 | 178 | 6.4 | 8.0 | 0.00 | 0.00 | 0.00 | 40 | 1006.5 |
| 20260504231312 | 20 | 159 | 4.8 | 4.8 | 0.00 | 0.00 | 0.00 | 39 | 1006.4 |
| 20260504230808 | 20 | 224 | 8.0 | 9.7 | 0.00 | 0.00 | 0.00 | 38 | 1006.4 |
| 20260504230306 | 20 | 214 | 4.8 | 8.0 | 0.00 | 0.00 | 0.00 | 39 | 1006.5 |
| 20260504225804 | 20 | 17 | 1.6 | 1.6 | 0.00 | 0.00 | 0.00 | 38 | 1006.3 |
| 20260504225300 | 20 | 108 | 3.2 | 3.2 | 0.00 | 0.00 | 0.00 | 39 | 1006.4 |
| 20260504224757 | 20 | 215 | 4.8 | 4.8 | 0.00 | 0.00 | 0.00 | 39 | 1006.4 |
| 20260504224255 | 20 | 237 | 3.2 | 4.8 | 0.00 | 0.00 | 0.00 | 38 | 1006.3 |
| 20260504223751 | 20 | 242 | 4.8 | 8.0 | 0.00 | 0.00 | 0.00 | 38 | 1006.5 |
| 20260504223247 | 20 | 211 | 4.8 | 4.8 | 0.00 | 0.00 | 0.00 | 38 | 1006.1 |
| 20260504222744 | 20 | 18 | 1.6 | 1.6 | 0.00 | 0.00 | 0.00 | 41 | 1006.4 |
| 20260504222241 | 20 | 222 | 4.8 | 11.3 | 0.00 | 0.00 | 0.00 | 38 | 1006.5 |
| 20260504221738 | 21 | 39 | 1.6 | 3.2 | 0.00 | 0.00 | 0.00 | 37 | 1006.4 |
| 20260504221235 | 21 | 92 | 1.6 | 1.6 | 0.00 | 0.00 | 0.00 | 38 | 1006.4 |
| 20260504220732 | 21 | 200 | 9.7 | 11.3 | 0.00 | 0.00 | 0.00 | 37 | 1006.6 |
| 20260504220229 | 21 | 9 | 1.6 | 3.2 | 0.00 | 0.00 | 0.00 | 38 | 1006.7 |
| 20260504215726 | 21 | 233 | 9.7 | 12.9 | 0.00 | 0.00 | 0.00 | 37 | 1006.3 |
| 20260504215223 | 21 | 301 | 3.2 | 3.2 | 0.00 | 0.00 | 0.00 | 37 | 1006.6 |
| 20260504214718 | 21 | 232 | 8.0 | 12.9 | 0.00 | 0.00 | 0.00 | 37 | 1006.8 |
| 20260504214215 | 21 | 214 | 4.8 | 4.8 | 0.00 | 0.00 | 0.00 | 38 | 1006.8 |
| 20260504213712 | 21 | 215 | 4.8 | 4.8 | 0.00 | 0.00 | 0.00 | 38 | 1006.8 |
| 20260504213208 | 21 | 232 | 3.2 | 3.2 | 0.00 | 0.00 | 0.00 | 39 | 1006.8 |
| 20260504212706 | 21 | 182 | 1.6 | 3.2 | 0.00 | 0.00 | 0.00 | 36 | 1006.8 |
| 20260504212202 | 21 | 208 | 6.4 | 9.7 | 0.00 | 0.00 | 0.00 | 37 | 1006.8 |
| 20260504211659 | 21 | 287 | 6.4 | 9.7 | 0.00 | 0.00 | 0.00 | 37 | 1006.6 |
| 20260504211155 | 21 | 218 | 4.8 | 8.0 | 0.00 | 0.00 | 0.00 | 38 | 1006.9 |
| 20260504210653 | 21 | 341 | 3.2 | 4.8 | 0.00 | 0.00 | 0.00 | 37 | 1006.8 |
| 20260504210150 | 21 | 214 | 4.8 | 8.0 | 0.00 | 0.00 | 0.00 | 39 | 1006.9 |
| 20260504205647 | 21 | 339 | 3.2 | 3.2 | 0.00 | 0.00 | 0.00 | 37 | 1006.7 |
| 20260504205144 | 21 | 218 | 8.0 | 9.7 | 0.00 | 0.00 | 0.00 | 37 | 1006.8 |
| 20260504204643 | 21 | 12 | 1.6 | 1.6 | 0.00 | 0.00 | 0.00 | 38 | 1006.7 |
| 20260504204141 | 21 | 202 | 9.7 | 9.7 | 0.00 | 0.00 | 0.00 | 36 | 1006.8 |
| 20260504203640 | 21 | 193 | 9.7 | 14.5 | 0.00 | 0.00 | 0.00 | 36 | 1006.9 |
| 20260504203137 | 21 | 8 | 1.6 | 1.6 | 0.00 | 0.00 | 0.00 | 35 | 1006.9 |
| 20260504202637 | 21 | 188 | 8.0 | 11.3 | 0.00 | 0.00 | 0.00 | 36 | 1006.7 |
| 20260504202134 | 21 | 337 | 3.2 | 3.2 | 0.00 | 0.00 | 0.00 | 38 | 1006.8 |
| 20260504201631 | 21 | 199 | 12.9 | 14.5 | 0.00 | 0.00 | 0.00 | 36 | 1006.9 |
| 20260504201129 | 21 | 12 | 1.6 | 3.2 | 0.00 | 0.00 | 0.00 | 34 | 1006.9 |
| 20260504200626 | 21 | 19 | 1.6 | 1.6 | 0.00 | 0.00 | 0.00 | 35 | 1006.8 |
| 20260504200122 | 21 | 221 | 4.8 | 8.0 | 0.00 | 0.00 | 0.00 | 35 | 1007.0 |
| 20260504195618 | 21 | 139 | 3.2 | 4.8 | 0.00 | 0.00 | 0.00 | 36 | 1007.1 |
| 20260504195115 | 21 | 220 | 4.8 | 4.8 | 0.00 | 0.00 | 0.00 | 37 | 1007.1 |
| 20260504194612 | 21 | 220 | 11.3 | 14.5 | 0.00 | 0.00 | 0.00 | 35 | 1007.0 |
| 20260504194107 | 21 | 215 | 8.0 | 9.7 | 0.00 | 0.00 | 0.00 | 35 | 1007.2 |
| 20260504193604 | 21 | 205 | 8.0 | 11.3 | 0.00 | 0.00 | 0.00 | 38 | 1007.1 |
| 20260504193102 | 21 | 202 | 9.7 | 11.3 | 0.00 | 0.00 | 0.00 | 35 | 1007.3 |
| 20260504192600 | 21 | 287 | 4.8 | 8.0 | 0.00 | 0.00 | 0.00 | 39 | 1007.1 |
| 20260504192058 | 21 | 359 | 4.8 | 4.8 | 0.00 | 0.00 | 0.00 | 36 | 1007.0 |
| 20260504191556 | 21 | 354 | 4.8 | 4.8 | 0.00 | 0.00 | 0.00 | 37 | 1007.2 |
| 20260504191052 | 21 | 351 | 1.6 | 1.6 | 0.00 | 0.00 | 0.00 | 39 | 1007.3 |
| 20260504190548 | 21 | 348 | 1.6 | 3.2 | 0.00 | 0.00 | 0.00 | 39 | 1007.5 |
| 20260504190044 | 20 | 173 | 4.8 | 8.0 | 0.00 | 0.00 | 0.00 | 37 | 1007.8 |
| 20260504185542 | 21 | 293 | 9.7 | 11.3 | 0.00 | 0.00 | 0.00 | 37 | 1007.5 |
| 20260504185038 | 21 | 247 | 8.0 | 11.3 | 0.00 | 0.00 | 0.00 | 36 | 1007.6 |
| 20260504184533 | 20 | 220 | 9.7 | 9.7 | 0.00 | 0.00 | 0.00 | 36 | 1007.7 |
| 20260504184029 | 20 | 223 | 12.9 | 16.1 | 0.00 | 0.00 | 0.00 | 36 | 1007.8 |
| 20260504183526 | 21 | 357 | 3.2 | 3.2 | 0.00 | 0.00 | 0.00 | 39 | 1007.8 |
| 20260504183025 | 20 | 204 | 8.0 | 9.7 | 0.00 | 0.00 | 0.00 | 38 | 1007.9 |
| 20260504182521 | 21 | 213 | 9.7 | 14.5 | 0.00 | 0.00 | 0.00 | 36 | 1008.0 |
| 20260504182018 | 20 | 72 | 1.6 | 1.6 | 0.00 | 0.00 | 0.00 | 38 | 1007.8 |
| 20260504181515 | 20 | 56 | 3.2 | 3.2 | 0.00 | 0.00 | 0.00 | 36 | 1008.0 |
| 20260504181014 | 20 | 3 | 4.8 | 4.8 | 0.00 | 0.00 | 0.00 | 36 | 1008.3 |
| 20260504180512 | 20 | 228 | 4.8 | 9.7 | 0.00 | 0.00 | 0.00 | 38 | 1008.2 |
| 20260504180011 | 20 | 347 | 4.8 | 8.0 | 0.00 | 0.00 | 0.00 | 37 | 1008.3 |
| 20260504175508 | 20 | 333 | 3.2 | 3.2 | 0.00 | 0.00 | 0.00 | 38 | 1008.3 |
| 20260504175005 | 20 | 217 | 4.8 | 4.8 | 0.00 | 0.00 | 0.00 | 38 | 1008.3 |
| 20260504174502 | 20 | 205 | 9.7 | 12.9 | 0.00 | 0.00 | 0.00 | 37 | 1008.5 |
| 20260504173959 | 20 | 31 | 1.6 | 1.6 | 0.00 | 0.00 | 0.00 | 39 | 1008.5 |
| 20260504173456 | 20 | 183 | 3.2 | 4.8 | 0.00 | 0.00 | 0.00 | 38 | 1008.6 |
| 20260504172953 | 19 | 217 | 4.8 | 8.0 | 0.00 | 0.00 | 0.00 | 40 | 1008.7 |
| 20260504172449 | 20 | 208 | 8.0 | 9.7 | 0.00 | 0.00 | 0.00 | 40 | 1008.8 |
| 20260504171946 | 20 | 141 | 3.2 | 3.2 | 0.00 | 0.00 | 0.00 | 39 | 1008.6 |
| 20260504171443 | 19 | 4 | 3.2 | 3.2 | 0.00 | 0.00 | 0.00 | 38 | 1008.9 |
| 20260504170939 | 19 | 232 | 6.4 | 9.7 | 0.00 | 0.00 | 0.00 | 38 | 1009.0 |
| 20260504170436 | 19 | 216 | 6.4 | 11.3 | 0.00 | 0.00 | 0.00 | 40 | 1008.9 |